Tracking 29510 objects as of 16-Sep-2024
HD Live streaming from Space Station
objects crossing your sky now

FENGYUN 1C DEB

Track FENGYUN 1C DEB now!
10-day predictions


NORAD ID: 37428
Int'l Code: 1999-025EGW
Perigee: 763.5 km
Apogee: 861.0 km
Inclination: 97.8 °
Period: 101.0 minutes
Semi major axis: 7183 km
RCS: 0.0129 m2 (small)
Launch date: May 10, 1999
Source: People's Republic of China (PRC)
Launch site: Taiyaun Space Center, China (TSC)

Note: This is SATELLITE DEBRIS
Your satellite tracking list
Your tracking list is empty




NASA's NSSDC Master Catalog

Two Line Element Set (TLE):
1 37428U 99025EGW 24240.98378615  .00011837  00000-0  48486-2 0  9990
2 37428  97.7589 148.5178 0067828  81.2730 279.6128 14.26011475566886
Source of the keplerian elements: AFSPC